Voltar ao catálogo

STARLINK-11413

AtivoComunicaçõesVLEO
NORAD 62593·PAYLOAD·🇺🇸 United States

Lançado Jan 13, 2025 de Cape Canaveral Space Force Station

Loading…

Próximas Passagens (próximas 24 horas)

TLE

AtualizadoSource: CelesTrak SupGP

Época: Sep 14, 2026, 22:38 UTC

1 62593C 25008G   26257.94354167  .00101890  00000+0  79157-3 0  2578
2 62593  43.0009  65.6845 0001653 274.8013 164.3030 15.70781722    15

Acompanhe STARLINK-11413 em tempo real com AllMySat

Download on the App Store